KD8DWO Weather Reports


time (UTC)temp
C
wind
direction
speed
KPH
gust
KPH
rain 1hr
cm
rain 24hr
cm
rain mn
cm
humidity
%
barometer
mb
20260903024006 25 234 0.0 0.0 0.00 0.00 0.00 86 1014.0
20260903023005 25 234 0.0 0.0 0.00 0.00 0.00 86 1014.0
20260903021006 25 234 0.0 0.0 0.00 0.00 0.00 85 1014.2
20260903015006 26 234 0.0 0.0 0.00 0.00 0.00 85 1014.0
20260903014006 26 234 0.0 0.0 0.00 0.00 0.00 85 1013.9
20260903013005 26 234 0.0 0.0 0.00 0.00 0.00 84 1014.1
20260903012005 26 234 0.0 0.0 0.00 0.00 0.00 83 1013.8
20260903005006 27 234 0.0 0.0 0.00 0.00 0.00 80 1013.7
20260903004006 27 234 0.0 8.0 0.00 0.00 0.00 79 1013.5
20260903003005 27 234 0.0 4.8 0.00 0.00 0.00 77 1013.6
20260903002005 27 234 0.0 8.0 0.00 0.00 0.00 77 1013.5
20260903000005 28 234 4.8 8.0 0.00 0.05 0.00 75 1013.5
20260902234005 28 234 6.4 9.7 0.00 0.05 0.00 72 1013.6
20260902233005 29 234 4.8 11.3 0.00 0.08 0.00 72 1013.6
20260902232005 29 234 8.0 11.3 0.00 0.08 0.00 72 1013.5
20260902231005 30 234 8.0 11.3 0.00 0.08 0.00 71 1013.6
20260902230005 30 234 8.0 11.3 0.00 0.10 0.00 69 1013.6
20260902225005 31 234 9.7 11.3 0.00 0.10 0.00 66 1013.6
20260902223005 31 240 9.7 11.3 0.00 0.13 0.00 63 1013.8
20260902222005 31 240 8.0 11.3 0.00 0.15 0.00 65 1013.7
20260902221005 32 240 9.7 11.3 0.00 0.18 0.00 63 1013.8
20260902220005 32 240 11.3 16.1 0.00 0.18 0.00 59 1013.9
20260902215005 32 242 8.0 14.5 0.00 0.18 0.00 60 1013.9
20260902214005 32 240 9.7 16.1 0.00 0.18 0.00 59 1013.9
20260902213005 32 239 11.3 16.1 0.00 0.18 0.00 58 1013.9
20260902212005 32 238 12.9 14.5 0.00 0.18 0.00 56 1014.0
20260902211005 32 240 14.5 16.1 0.00 0.18 0.00 55 1013.9
20260902210005 32 243 11.3 16.1 0.00 0.18 0.00 54 1014.1
20260902205005 32 241 14.5 16.1 0.00 0.20 0.00 55 1014.2
20260902204005 33 231 14.5 16.1 0.00 0.23 0.00 57 1014.3
20260902203005 33 239 12.9 16.1 0.00 0.25 0.00 55 1014.4
20260902202005 33 238 14.5 16.1 0.00 0.28 0.00 55 1014.5
20260902200005 33 249 11.3 16.1 0.00 0.28 0.00 54 1014.8
20260902194005 33 234 14.5 20.9 0.00 0.28 0.00 56 1014.7
20260902193005 33 237 9.7 14.5 0.00 0.30 0.00 57 1014.9
20260902192005 32 237 14.5 19.3 0.00 0.30 0.00 56 1015.2
20260902191005 32 232 11.3 16.1 0.00 0.30 0.00 61 1015.0
20260902190005 32 234 12.9 16.1 0.00 0.30 0.00 61 1015.3
20260902185005 32 225 8.0 11.3 0.00 0.30 0.00 63 1015.3
20260902184004 32 241 11.3 24.1 0.00 0.30 0.00 60 1015.3
20260902183005 32 232 9.7 11.3 0.00 0.30 0.00 62 1015.2
20260902182005 32 242 8.0 11.3 0.00 0.30 0.00 63 1015.5
20260902180007 32 236 12.9 16.1 0.00 0.30 0.00 64 1015.9
20260902175005 32 256 8.0 11.3 0.00 0.30 0.00 62 1015.8
20260902172005 31 230 8.0 16.1 0.00 0.30 0.00 68 1016.0
20260902171005 31 230 9.7 16.1 0.00 0.30 0.00 66 1016.3
20260902170005 31 223 9.7 14.5 0.00 0.30 0.00 68 1016.3
20260902164005 30 228 8.0 11.3 0.00 0.30 0.00 72 1016.4
20260902163005 30 226 4.8 11.3 0.00 0.30 0.00 71 1016.6
20260902162005 30 228 8.0 16.1 0.00 0.30 0.00 70 1016.8
20260902161005 30 228 8.0 16.1 0.00 0.30 0.00 72 1016.8
20260902160007 30 214 8.0 16.1 0.00 0.30 0.00 71 1016.8
20260902155004 30 229 6.4 16.1 0.00 0.30 0.00 74 1016.9
20260902154005 29 232 9.7 11.3 0.00 0.30 0.00 74 1016.7
20260902153004 29 235 8.0 11.3 0.00 0.30 0.00 75 1016.6
20260902152004 29 231 8.0 16.1 0.00 0.30 0.00 77 1016.7
20260902150005 28 220 4.8 11.3 0.00 0.33 0.00 79 1016.6
20260902145005 28 227 8.0 11.3 0.00 0.33 0.00 81 1016.5
20260902143005 27 228 8.0 11.3 0.00 0.97 0.00 89 1016.2
20260902142005 26 216 6.4 11.3 0.00 0.97 0.00 92 1016.3
20260902140005 25 211 4.8 11.3 0.00 0.97 0.00 94 1016.2
20260902135004 25 253 6.4 9.7 0.00 0.97 0.00 94 1016.3
20260902133005 24 253 3.2 8.0 0.00 0.97 0.00 94 1016.3
20260902132004 23 253 4.8 11.3 0.00 0.97 0.00 94 1016.2
20260902131005 23 253 4.8 8.0 0.00 0.97 0.00 94 1016.3
20260902130005 23 256 0.0 0.0 0.00 0.97 0.00 94 1016.3
20260902125004 23 256 0.0 0.0 0.00 0.97 0.00 94 1016.3
20260902124005 23 256 0.0 0.0 0.00 0.97 0.00 93 1016.4
20260902123004 22 256 0.0 0.0 0.00 0.97 0.00 93 1016.4
20260902122004 22 256 0.0 0.0 0.00 0.97 0.00 93 1016.4
20260902121004 22 256 0.0 0.0 0.00 0.97 0.00 93 1016.3
20260902120004 22 256 0.0 0.0 0.00 0.97 0.00 93 1016.5
20260902115005 22 256 0.0 0.0 0.00 0.97 0.00 93 1016.4
20260902114004 21 256 0.0 0.0 0.00 0.97 0.00 93 1016.4
20260902113004 22 256 0.0 0.0 0.00 0.97 0.00 93 1016.3
20260902112004 21 256 0.0 0.0 0.00 0.97 0.00 93 1016.3
20260902111005 21 256 0.0 0.0 0.00 0.97 0.00 93 1016.3
20260902110006 21 256 0.0 0.0 0.00 0.97 0.00 93 1016.1
20260902105004 21 256 0.0 0.0 0.00 0.97 0.00 93 1016.1
20260902104004 21 256 0.0 0.0 0.00 0.97 0.00 93 1016.0
20260902103005 21 256 0.0 0.0 0.00 0.97 0.00 92 1016.3
20260902102004 21 256 0.0 0.0 0.00 0.97 0.00 93 1016.0
20260902101004 22 256 0.0 0.0 0.00 0.97 0.00 93 1015.9
20260902100005 22 256 0.0 0.0 0.00 0.97 0.00 92 1016.1
20260902093005 22 256 0.0 0.0 0.00 0.97 0.00 93 1015.8
20260902091004 22 256 0.0 0.0 0.00 0.97 0.00 93 1015.7
20260902090004 22 256 0.0 0.0 0.00 0.97 0.00 92 1015.9
20260902085004 22 256 0.0 0.0 0.00 0.97 0.00 92 1015.8
20260902084004 22 256 0.0 0.0 0.00 0.97 0.00 93 1015.9
20260902082004 22 256 0.0 0.0 0.00 0.97 0.00 92 1015.8
20260902081004 22 256 0.0 0.0 0.00 0.97 0.00 93 1015.6
20260902080004 22 256 0.0 0.0 0.00 0.97 0.00 92 1015.6
20260902075004 22 256 0.0 0.0 0.00 0.97 0.00 91 1015.4
20260902074005 22 256 0.0 0.0 0.00 0.97 0.00 91 1015.4
20260902071004 22 256 0.0 0.0 0.00 0.97 0.00 91 1015.1
20260902070005 22 256 0.0 0.0 0.00 0.97 0.00 91 1015.4
20260902065004 22 256 0.0 0.0 0.00 0.97 0.00 91 1015.4
20260902064004 22 256 0.0 0.0 0.00 0.97 0.00 91 1015.1
20260902063004 22 256 0.0 0.0 0.00 0.97 0.00 90 1015.3
20260902062003 22 256 0.0 0.0 0.00 0.97 0.00 90 1015.4
20260902061006 22 256 0.0 0.0 0.00 0.97 0.00 90 1015.4
20260902060006 23 256 0.0 0.0 0.00 0.97 0.00 91 1015.5
20260902055006 23 256 0.0 0.0 0.00 0.97 0.00 91 1015.6
20260902054005 23 256 0.0 0.0 0.00 0.97 0.00 91 1015.6
20260902053006 23 256 0.0 0.0 0.00 0.97 0.00 91 1015.8
20260902050008 23 256 0.0 0.0 0.00 0.97 0.00 91 1015.7
20260902045006 23 256 0.0 0.0 0.00 0.97 0.00 90 1015.6
20260902044006 23 256 0.0 0.0 0.00 0.97 0.00 91 1015.6
20260902043005 23 256 0.0 0.0 0.00 0.97 0.00 91 1015.6
20260902042006 23 256 0.0 0.0 0.00 0.97 0.00 91 1015.6
20260902041005 23 256 0.0 0.0 0.00 0.97 0.00 91 1015.4
20260902035006 23 256 0.0 0.0 0.00 0.97 0.97 91 1015.2
20260902034006 23 256 0.0 0.0 0.00 0.97 0.97 90 1015.1
20260902033005 23 256 0.0 0.0 0.00 0.97 0.97 91 1015.0
20260902032006 23 256 0.0 0.0 0.00 0.97 0.97 90 1014.5
20260902031005 23 256 0.0 0.0 0.00 0.97 0.97 90 1014.6
20260902030006 23 256 0.0 0.0 0.00 0.97 0.97 90 1014.8